IZ1OSY-3 Weather Reports


time (UTC)temp
F
wind
direction
speed
knots
gust
knots
rain 1hr
in
rain 24hr
in
rain mn
in
humidity
%
barometer
mb
20260507230218 49 0.0 0.0 0.00 0.00 0.00 99 1014.5
20260507225722 49 0.0 0.0 0.00 0.00 0.00 99 1014.5
20260507224217 50 0.0 0.0 0.00 0.00 0.00 99 1014.5
20260507223721 50 0.0 0.0 0.00 0.00 0.00 99 1014.5
20260507222216 50 0.0 0.0 0.00 0.00 0.00 99 1014.5
20260507221720 50 0.0 0.0 0.00 0.00 0.00 99 1014.5
20260507220216 50 0.0 0.0 0.00 0.00 0.00 99 1014.3
20260507215720 50 0.0 0.0 0.00 0.00 0.00 99 1014.3
20260507214215 50 0.0 0.0 0.00 0.00 0.00 99 1014.1
20260507213718 50 0.0 0.0 0.00 0.00 0.00 99 1014.0
20260507212214 50 0.0 0.0 0.00 0.00 0.00 98 1013.9
20260507211718 50 0.0 0.0 0.00 0.00 0.00 95 1013.9
20260507210213 51 0.0 0.0 0.00 0.00 0.00 90 1014.0
20260507205717 51 0.0 0.0 0.00 0.00 0.00 93 1014.0
20260507204212 51 0.0 0.0 0.00 0.00 0.00 97 1014.0
20260507203716 50 0.0 0.0 0.00 0.00 0.00 99 1014.0
20260507202212 51 0.0 0.0 0.00 0.00 0.00 99 1013.9
20260507201715 51 0.0 0.0 0.00 0.00 0.00 99 1013.9
20260507200211 51 0.0 0.0 0.00 0.00 0.00 99 1013.9
20260507195715 51 0.0 0.0 0.00 0.00 0.00 99 1013.8
20260507194210 52 0.0 0.0 0.00 0.00 0.00 99 1013.6
20260507193713 52 0.0 0.0 0.00 0.00 0.00 99 1013.5
20260507192209 51 0.0 0.0 0.00 0.00 0.00 99 1013.5
20260507191712 51 0.0 0.0 0.00 0.00 0.00 99 1013.4
20260507190208 52 0.0 0.0 0.00 0.00 0.00 99 1013.3
20260507185712 52 0.0 0.0 0.00 0.00 0.00 99 1013.3
20260507184207 52 0.0 0.0 0.00 0.00 0.00 99 1013.2
20260507183711 52 0.0 0.0 0.00 0.00 0.00 99 1013.2
20260507182206 52 0.0 0.0 0.00 0.00 0.00 99 1013.3
20260507181710 52 0.0 0.0 0.00 0.00 0.00 99 1013.2
20260507180206 53 0.0 0.0 0.00 0.00 0.00 99 1013.2
20260507174205 53 0.0 0.0 0.00 0.00 0.00 99 1013.3
20260507173708 53 0.0 0.0 0.00 0.00 0.00 99 1013.3
20260507172204 53 0.0 0.0 0.00 0.00 0.00 99 1013.3
20260507171707 53 0.0 0.0 0.00 0.00 0.00 99 1013.2
20260507170203 53 0.0 0.0 0.00 0.00 0.00 99 1013.2
20260507165707 53 0.0 0.0 0.00 0.00 0.00 99 1013.2
20260507164202 54 0.0 0.0 0.00 0.00 0.00 99 1013.0
20260507163706 54 0.0 0.0 0.00 0.00 0.00 99 1013.0
20260507162201 54 0.0 0.0 0.00 0.00 0.00 99 1013.2
20260507161705 54 0.0 0.0 0.00 0.00 0.00 99 1013.2
20260507160201 53 0.0 0.0 0.00 0.00 0.00 99 1013.1
20260507155704 54 0.0 0.0 0.00 0.00 0.00 99 1013.0
20260507154200 54 0.0 0.0 0.00 0.00 0.00 99 1013.2
20260507153703 54 0.0 0.0 0.00 0.00 0.00 99 1013.2
20260507152159 55 0.0 0.0 0.00 0.00 0.00 90 1013.1
20260507151702 56 0.0 0.0 0.00 0.00 0.00 95 1013.1
20260507150158 56 0.0 0.0 0.00 0.00 0.00 95 1013.0
20260507145702 56 0.0 0.0 0.00 0.00 0.00 99 1013.0
20260507144157 57 0.0 0.0 0.00 0.00 0.00 99 1013.1
20260507143701 57 0.0 0.0 0.00 0.00 0.00 98 1013.1
20260507142156 57 0.0 0.0 0.00 0.00 0.00 99 1013.2
20260507141700 57 0.0 0.0 0.00 0.00 0.00 98 1013.3
20260507140156 57 0.0 0.0 0.00 0.00 0.00 99 1013.4
20260507135659 57 0.0 0.0 0.00 0.00 0.00 99 1013.3
20260507134155 56 0.0 0.0 0.00 0.00 0.00 99 1013.4
20260507133658 57 0.0 0.0 0.00 0.00 0.00 99 1013.5
20260507132154 57 0.0 0.0 0.00 0.00 0.00 99 1013.5
20260507131658 57 0.0 0.0 0.00 0.00 0.00 99 1013.4
20260507130153 55 0.0 0.0 0.00 0.00 0.00 99 1013.4
20260507125657 55 0.0 0.0 0.00 0.00 0.00 99 1013.5
20260507124152 56 0.0 0.0 0.00 0.00 0.00 99 1013.4
20260507123656 56 0.0 0.0 0.00 0.00 0.00 99 1013.4
20260507122151 56 0.0 0.0 0.00 0.00 0.00 99 1013.3
20260507121655 56 0.0 0.0 0.00 0.00 0.00 99 1013.3
20260507120151 56 0.0 0.0 0.00 0.00 0.00 99 1013.4
20260507115655 56 0.0 0.0 0.00 0.00 0.00 99 1013.4
20260507114150 56 0.0 0.0 0.00 0.00 0.00 99 1013.5
20260507113653 55 0.0 0.0 0.00 0.00 0.00 99 1013.5
20260507112149 54 0.0 0.0 0.00 0.00 0.00 99 1013.7
20260507110148 53 0.0 0.0 0.00 0.00 0.00 99 1013.9
20260507105652 53 0.0 0.0 0.00 0.00 0.00 99 1013.8
20260507104147 53 0.0 0.0 0.00 0.00 0.00 99 1013.9
20260507103651 52 0.0 0.0 0.00 0.00 0.00 99 1013.8
20260507102146 52 0.0 0.0 0.00 0.00 0.00 99 1014.0
20260507101650 52 0.0 0.0 0.00 0.00 0.00 99 1014.0
20260507100146 53 0.0 0.0 0.00 0.00 0.00 99 1013.8
20260507095649 53 0.0 0.0 0.00 0.00 0.00 99 1013.8
20260507094145 52 0.0 0.0 0.00 0.00 0.00 99 1013.8
20260507092144 50 0.0 0.0 0.00 0.00 0.00 99 1013.7
20260507091647 50 0.0 0.0 0.00 0.00 0.00 99 1013.7
20260507090143 50 0.0 0.0 0.00 0.00 0.00 99 1013.8
20260507084142 49 0.0 0.0 0.00 0.00 0.00 99 1013.6
20260507083646 49 0.0 0.0 0.00 0.00 0.00 99 1013.6
20260507080140 49 0.0 0.0 0.00 0.00 0.00 99 1013.3
20260507075645 49 0.0 0.0 0.00 0.00 0.00 99 1013.2
20260507074140 49 0.0 0.0 0.00 0.00 0.00 99 1013.2
20260507073643 49 0.0 0.0 0.00 0.00 0.00 99 1013.1
20260507072139 48 0.0 0.0 0.00 0.00 0.00 99 1013.0
20260507071642 49 0.0 0.0 0.00 0.00 0.00 99 1013.0
20260507070138 49 0.0 0.0 0.00 0.00 0.00 99 1012.9
20260507065642 49 0.0 0.0 0.00 0.00 0.00 99 1012.7
20260507064137 49 0.0 0.0 0.00 0.00 0.00 99 1012.6
20260507063641 49 0.0 0.0 0.00 0.00 0.00 99 1012.6
20260507062136 49 0.0 0.0 0.00 0.00 0.00 99 1012.5
20260507061640 49 0.0 0.0 0.00 0.00 0.00 99 1012.4
20260507060136 49 0.0 0.0 0.00 0.00 0.00 99 1012.3
20260507054135 49 0.0 0.0 0.00 0.00 0.00 99 1012.0
20260507053638 50 0.0 0.0 0.00 0.00 0.00 99 1012.1
20260507052134 50 0.0 0.0 0.00 0.00 0.00 99 1011.8
20260507051638 50 0.0 0.0 0.00 0.00 0.00 99 1011.8
20260507050133 50 0.0 0.0 0.00 0.00 0.00 99 1011.6
20260507045637 50 0.0 0.0 0.00 0.00 0.00 99 1011.5
20260507044132 49 0.0 0.0 0.00 0.00 0.00 99 1011.4
20260507043636 49 0.0 0.0 0.00 0.00 0.00 99 1011.5
20260507042131 50 0.0 0.0 0.00 0.00 0.00 99 1011.3
20260507041635 49 0.0 0.0 0.00 0.00 0.00 99 1011.3
20260507040131 50 0.0 0.0 0.00 0.00 0.00 99 1011.3
20260507035634 49 0.0 0.0 0.00 0.00 0.00 99 1011.2
20260507034130 49 0.0 0.0 0.00 0.00 0.00 99 1011.0
20260507032129 50 0.0 0.0 0.00 0.00 0.00 99 1010.9
20260507031632 50 0.0 0.0 0.00 0.00 0.00 99 1010.9
20260507030128 50 0.0 0.0 0.00 0.00 0.00 99 1011.1
20260507025632 50 0.0 0.0 0.00 0.00 0.00 99 1011.0
20260507024127 50 0.0 0.0 0.00 0.00 0.00 99 1011.1
20260507023631 50 0.0 0.0 0.00 0.00 0.00 99 1011.1
20260507022134 50 0.0 0.0 0.00 0.00 0.00 99 1011.0
20260507014124 50 0.0 0.0 0.00 0.00 0.00 99 1010.8
20260507013628 50 0.0 0.0 0.00 0.00 0.00 99 1010.6
20260507012124 50 0.0 0.0 0.00 0.00 0.00 99 1010.7
20260507011627 50 0.0 0.0 0.00 0.00 0.00 99 1010.7
20260507010130 51 0.0 0.0 0.00 0.00 0.00 99 1010.9
20260507005626 50 0.0 0.0 0.00 0.00 0.00 99 1011.0
20260507004122 51 0.0 0.0 0.00 0.00 0.00 99 1011.1
20260507003626 51 0.0 0.0 0.00 0.00 0.00 99 1011.1
20260507002121 51 0.0 0.0 0.00 0.00 0.00 99 1011.0
20260507001625 51 0.0 0.0 0.00 0.00 0.00 99 1011.0
20260507000120 50 0.0 0.0 0.00 0.00 0.00 99 1010.7
20260506235624 50 0.0 0.0 0.00 0.00 0.00 99 1010.8
20260506234119 50 0.0 0.0 0.00 0.00 0.00 99 1010.8
20260506233623 50 0.0 0.0 0.00 0.00 0.00 99 1010.7
20260506232119 50 0.0 0.0 0.00 0.00 0.00 99 1010.5
20260506231622 50 0.0 0.0 0.00 0.00 0.00 99 1010.5